Location: Bay Shore Mobile Home Park
(38.5762°N, 75.0841°W)
Time: 06:08:20
(UTC+00:00)

Hubble Space Telescope - Pass Details

Date: 24 January 2026
Orbit: 478 x 480 km, 28.5° (Epoch: 8 February)

Event Time Altitude Azimuth Distance (km) Brightness Sun altitude
Rises 23:06:18 0° 218° (SW) 2,509 5.1 -10.5°
Reaches altitude 10° 23:10:01 10° 180° (S) 1,634 3.4 -11.2°
Maximum altitude 23:11:02 11° 164° (SSE) 1,581 3.2 -11.4°
Drops below altitude 10° 23:12:02 10° 149° (SSE) 1,636 3.1 -11.6°
Enters shadow 23:13:43 - 128° (SE) 1,934 3.3 -11.9°
